Hourly Data Report for July 09, 2012

HALIFAX STANFIELD INT'L A
NOVA SCOTIA

44°52'48.060" N
63°30'00.050" W
145.40 m
8202250
71395
YHZ

Download Data

Hourly Data (July 2012)
Hourly Data Report for July 9, 2012
TIME
LST
Temp Definition
°C
Dew Point Definition
°C
Rel Hum Definition
%
Precip. Amount Definition
mm

Wind Dir Definition
10's deg

Wind Spd Definition
km/h
Visibility Definition
km
Stn Press Definition
kPa
Hmdx Definition


Wind Chill Definition


Weather Definition


00:00 15.9 10.8 72   28 15 24.1 98.96     Clear
01:00 15.5 10.5 72   30 13 24.1 98.98     Clear
02:00 14.6 9.9 73   28 15 24.1 98.98     Clear
03:00 14.0 9.3 73   2 15 24.1 98.98     Mainly Clear
04:00 14.0 9.3 73   27 17 24.1 98.97     Clear
05:00 14.8 8.8 67   26 17 24.1 99.02     Clear
06:00 15.0 9.7 71   24 19 24.1 99.08     Mainly Clear
07:00 16.6 10.5 67   26 22 24.1 99.12     Mainly Clear
08:00 18.9 10.6 59   28 22 24.1 99.14     Clear
09:00 19.8 10.2 54   30 20 24.1 99.15     Mainly Clear
10:00 21.3 9.9 48   29 26 24.1 99.14     Mainly Clear
11:00 22.0 9.7 46   27 26 24.1 99.13     Mainly Clear
12:00 22.2 8.7 42   28 26 24.1 99.10     Mainly Clear
13:00 24.0 8.8 38   26 28 24.1 99.07 25   Mainly Clear
14:00 24.9 9.1 37   26 28 24.1 99.05 26   Mainly Clear
15:00 25.4 7.0 31   26 33 24.1 99.07 25   Mainly Clear
16:00 25.0 6.1 30   30 32 24.1 99.08 25   Mainly Clear
17:00 23.7 6.6 33   30 33 24.1 99.12     Mainly Clear
18:00 22.8 8.2 39   30 26 24.1 99.16     Mainly Clear
19:00 21.5 8.9 44   29 19 24.1 99.22     Mainly Clear
20:00 19.5 9.2 51   27 11 24.1 99.29     Mainly Clear
21:00 18.6 8.8 53   26 17 24.1 99.37     Mainly Clear
22:00 18.1 9.0 55   25 17 24.1 99.41     Mainly Clear
23:00 17.1 9.1 59   25 20 24.1 99.46     Mainly Clear

Notes on Data Quality.

Legend

  • E = Estimated
  • M = Missing
  • NA = Not Available*
  • [empty] = Indicates an unobserved value
Date modified: